Time,TemperatureF,DewpointF,PressureIn,WindDirection,WindDirectionDegrees,WindSpeedMPH,WindSpeedGustMPH,Humidity,HourlyPrecipIn,Conditions,Clouds,dailyrainin,SoftwareType,DateUTC
2013-03-19 00:02:00,31.6,18.5,29.34,NW,304,6.0,17.0,58,0.00,,,0.00,meteohub,2013-03-19 05:02:00,
2013-03-19 00:07:00,31.6,18.5,29.33,NW,307,0.0,17.0,58,0.00,,,0.00,meteohub,2013-03-19 05:07:00,
2013-03-19 00:12:00,31.5,18.3,29.32,NW,308,5.0,17.0,58,0.00,,,0.00,meteohub,2013-03-19 05:12:00,
2013-03-19 00:17:00,31.5,18.3,29.33,NW,316,2.0,15.0,58,0.00,,,0.00,meteohub,2013-03-19 05:17:00,
2013-03-19 00:22:00,31.3,18.1,29.33,NW,314,2.0,10.0,58,0.00,,,0.00,meteohub,2013-03-19 05:22:00,
2013-03-19 00:27:00,31.3,18.1,29.33,West,259,2.0,11.0,58,0.00,,,0.00,meteohub,2013-03-19 05:27:00,
2013-03-19 00:32:00,31.3,18.1,29.33,West,259,5.0,11.0,58,0.00,,,0.00,meteohub,2013-03-19 05:32:00,
2013-03-19 00:37:00,31.1,18.1,29.33,WNW,290,3.0,11.0,58,0.00,,,0.00,meteohub,2013-03-19 05:37:00,
2013-03-19 00:42:00,30.9,18.3,29.33,West,265,8.0,11.0,59,0.00,,,0.00,meteohub,2013-03-19 05:42:00,
2013-03-19 00:47:00,30.9,18.7,29.33,West,266,7.0,11.0,60,0.00,,,0.00,meteohub,2013-03-19 05:47:00,
2013-03-19 00:52:00,30.7,18.5,29.33,WNW,298,3.0,12.0,60,0.00,,,0.00,meteohub,2013-03-19 05:52:00,
2013-03-19 00:57:00,30.7,18.5,29.33,West,270,4.0,12.0,60,0.00,,,0.00,meteohub,2013-03-19 05:57:00,
2013-03-19 01:02:00,30.7,18.5,29.33,West,265,4.0,12.0,60,0.00,,,0.00,meteohub,2013-03-19 06:02:00,
2013-03-19 01:07:00,30.6,18.3,29.33,West,263,11.0,12.0,60,0.00,,,0.00,meteohub,2013-03-19 06:07:00,
2013-03-19 01:12:00,30.6,18.3,29.33,West,278,4.0,12.0,60,0.00,,,0.00,meteohub,2013-03-19 06:12:00,
2013-03-19 01:17:00,30.6,18.3,29.34,WSW,248,19.0,19.0,60,0.00,,,0.00,meteohub,2013-03-19 06:17:00,
2013-03-19 01:22:00,30.6,18.3,29.34,WSW,250,5.0,19.0,60,0.00,,,0.00,meteohub,2013-03-19 06:22:00,
2013-03-19 01:27:00,30.6,18.3,29.33,West,273,6.0,19.0,60,0.00,,,0.00,meteohub,2013-03-19 06:27:00,
2013-03-19 01:32:00,30.6,18.3,29.34,WSW,249,8.0,19.0,60,0.00,,,0.00,meteohub,2013-03-19 06:32:00,
2013-03-19 01:37:00,30.6,18.3,29.34,West,273,2.0,14.0,60,0.00,,,0.00,meteohub,2013-03-19 06:37:00,
2013-03-19 01:42:00,30.6,18.3,29.34,West,271,3.0,14.0,60,0.00,,,0.00,meteohub,2013-03-19 06:42:00,
2013-03-19 01:48:00,30.4,18.5,29.34,WNW,298,6.0,14.0,61,0.00,,,0.00,meteohub,2013-03-19 06:48:00,
2013-03-19 01:53:00,30.4,18.5,29.34,West,275,1.0,12.0,61,0.00,,,0.00,meteohub,2013-03-19 06:53:00,
2013-03-19 01:58:00,30.4,18.5,29.34,WSW,257,6.0,12.0,61,0.00,,,0.00,meteohub,2013-03-19 06:58:00,
2013-03-19 02:03:00,30.2,18.3,29.34,WNW,298,5.0,12.0,61,0.00,,,0.00,meteohub,2013-03-19 07:03:00,
2013-03-19 02:08:00,30.2,18.3,29.34,WNW,302,7.0,12.0,61,0.00,,,0.00,meteohub,2013-03-19 07:08:00,
2013-03-19 02:13:00,30.2,18.3,29.34,West,262,7.0,11.0,61,0.00,,,0.00,meteohub,2013-03-19 07:13:00,
2013-03-19 02:18:00,30.0,18.1,29.34,WNW,286,3.0,11.0,61,0.00,,,0.00,meteohub,2013-03-19 07:18:00,
2013-03-19 02:23:00,30.0,18.5,29.35,West,263,7.0,11.0,62,0.00,,,0.00,meteohub,2013-03-19 07:23:00,
2013-03-19 02:28:00,30.0,18.1,29.35,WNW,288,11.0,16.0,61,0.00,,,0.00,meteohub,2013-03-19 07:28:00,
2013-03-19 02:33:00,30.0,18.1,29.35,West,272,6.0,16.0,61,0.00,,,0.00,meteohub,2013-03-19 07:33:00,
2013-03-19 02:38:00,29.8,18.5,29.35,WSW,254,8.0,16.0,62,0.00,,,0.00,meteohub,2013-03-19 07:38:00,
2013-03-19 02:43:00,29.8,18.5,29.34,West,262,10.0,13.0,62,0.00,,,0.00,meteohub,2013-03-19 07:43:00,
2013-03-19 02:48:00,29.8,18.5,29.34,West,280,3.0,13.0,62,0.00,,,0.00,meteohub,2013-03-19 07:48:00,
2013-03-19 02:53:00,29.8,18.5,29.34,WNW,302,3.0,13.0,62,0.00,,,0.00,meteohub,2013-03-19 07:53:00,
2013-03-19 02:58:00,29.7,18.3,29.34,WSW,258,7.0,12.0,62,0.00,,,0.00,meteohub,2013-03-19 07:58:00,
2013-03-19 03:03:00,29.7,18.3,29.35,West,276,4.0,14.0,62,0.00,,,0.00,meteohub,2013-03-19 08:03:00,
2013-03-19 03:09:00,29.7,18.3,29.34,West,280,10.0,15.0,62,0.00,,,0.00,meteohub,2013-03-19 08:09:00,
2013-03-19 03:14:00,29.8,18.5,29.34,West,259,3.0,15.0,62,0.00,,,0.00,meteohub,2013-03-19 08:14:00,
2013-03-19 03:19:00,29.7,18.3,29.35,WNW,284,5.0,12.0,62,0.00,,,0.00,meteohub,2013-03-19 08:19:00,
2013-03-19 03:24:00,29.7,18.3,29.35,WNW,292,5.0,12.0,62,0.00,,,0.00,meteohub,2013-03-19 08:24:00,
2013-03-19 03:29:00,29.7,18.3,29.35,WNW,297,7.0,10.0,62,0.00,,,0.00,meteohub,2013-03-19 08:29:00,
2013-03-19 03:34:00,29.7,18.3,29.35,West,272,10.0,10.0,62,0.00,,,0.00,meteohub,2013-03-19 08:34:00,
2013-03-19 03:39:00,29.7,17.8,29.36,NW,306,4.0,13.0,61,0.00,,,0.00,meteohub,2013-03-19 08:39:00,
2013-03-19 03:44:00,29.7,17.8,29.35,WNW,292,6.0,13.0,61,0.00,,,0.00,meteohub,2013-03-19 08:44:00,
2013-03-19 03:49:00,29.7,17.8,29.35,NW,306,4.0,13.0,61,0.00,,,0.00,meteohub,2013-03-19 08:49:00,
2013-03-19 03:54:00,29.5,18.1,29.36,WSW,238,6.0,13.0,62,0.00,,,0.00,meteohub,2013-03-19 08:54:00,
2013-03-19 03:59:00,29.5,18.1,29.37,NW,311,2.0,13.0,62,0.00,,,0.00,meteohub,2013-03-19 08:59:00,
2013-03-19 04:04:00,29.7,17.8,29.37,WNW,300,3.0,11.0,61,0.00,,,0.00,meteohub,2013-03-19 09:04:00,
2013-03-19 04:09:00,29.7,17.8,29.36,WNW,303,4.0,13.0,61,0.00,,,0.00,meteohub,2013-03-19 09:09:00,
2013-03-19 04:14:00,29.7,17.8,29.36,NW,304,9.0,13.0,61,0.00,,,0.00,meteohub,2013-03-19 09:14:00,
2013-03-19 04:19:00,29.7,17.4,29.36,NW,311,5.0,13.0,60,0.00,,,0.00,meteohub,2013-03-19 09:19:00,
2013-03-19 04:24:00,29.7,17.4,29.36,NW,314,4.0,15.0,60,0.00,,,0.00,meteohub,2013-03-19 09:24:00,
2013-03-19 04:29:00,29.7,17.4,29.36,WNW,302,5.0,15.0,60,0.00,,,0.00,meteohub,2013-03-19 09:29:00,
2013-03-19 04:34:00,29.7,17.4,29.37,NW,322,7.0,15.0,60,0.00,,,0.00,meteohub,2013-03-19 09:34:00,
2013-03-19 04:39:00,29.7,17.4,29.37,NW,317,10.0,14.0,60,0.00,,,0.00,meteohub,2013-03-19 09:39:00,
2013-03-19 04:44:00,29.8,17.6,29.37,WNW,300,13.0,14.0,60,0.00,,,0.00,meteohub,2013-03-19 09:44:00,
2013-03-19 04:49:00,29.8,17.6,29.37,WNW,288,6.0,19.0,60,0.00,,,0.00,meteohub,2013-03-19 09:49:00,
2013-03-19 04:54:00,29.8,17.6,29.37,NNW,327,6.0,19.0,60,0.00,,,0.00,meteohub,2013-03-19 09:54:00,
2013-03-19 04:59:00,29.7,17.8,29.37,WNW,292,2.0,19.0,61,0.00,,,0.00,meteohub,2013-03-19 09:59:00,
2013-03-19 05:04:00,29.7,17.4,29.37,WNW,302,4.0,15.0,60,0.00,,,0.00,meteohub,2013-03-19 10:04:00,
2013-03-19 05:09:00,29.7,17.8,29.38,NW,304,5.0,15.0,61,0.00,,,0.00,meteohub,2013-03-19 10:09:00,
2013-03-19 05:14:00,29.7,17.4,29.38,NW,306,11.0,16.0,60,0.00,,,0.00,meteohub,2013-03-19 10:14:00,
2013-03-19 05:19:00,29.5,17.2,29.38,NNE,19,5.0,16.0,60,0.00,,,0.00,meteohub,2013-03-19 10:19:00,
2013-03-19 05:24:00,29.5,16.9,29.38,NNW,329,5.0,15.0,59,0.00,,,0.00,meteohub,2013-03-19 10:24:00,
2013-03-19 05:29:00,29.5,16.9,29.39,NW,304,9.0,15.0,59,0.00,,,0.00,meteohub,2013-03-19 10:29:00,
2013-03-19 05:34:00,29.3,16.7,29.39,North,0,2.0,16.0,59,0.00,,,0.00,meteohub,2013-03-19 10:34:00,
2013-03-19 05:39:00,29.1,16.5,29.39,WNW,302,8.0,16.0,59,0.00,,,0.00,meteohub,2013-03-19 10:39:00,
2013-03-19 05:44:00,29.1,16.5,29.39,NW,312,7.0,19.0,59,0.00,,,0.00,meteohub,2013-03-19 10:44:00,
2013-03-19 05:49:00,28.9,16.3,29.39,NW,309,6.0,19.0,59,0.00,,,0.00,meteohub,2013-03-19 10:49:00,
2013-03-19 05:55:00,28.9,16.3,29.39,NW,317,9.0,19.0,59,0.00,,,0.00,meteohub,2013-03-19 10:55:00,
2013-03-19 06:00:00,28.8,16.2,29.39,NW,323,9.0,13.0,59,0.00,,,0.00,meteohub,2013-03-19 11:00:00,
2013-03-19 06:05:00,28.8,16.2,29.40,NW,313,10.0,15.0,59,0.00,,,0.00,meteohub,2013-03-19 11:05:00,
2013-03-19 06:10:00,28.8,16.2,29.40,NW,323,4.0,15.0,59,0.00,,,0.00,meteohub,2013-03-19 11:10:00,
2013-03-19 06:15:00,28.6,16.2,29.40,NNW,328,3.0,15.0,59,0.00,,,0.00,meteohub,2013-03-19 11:15:00,
2013-03-19 06:20:00,28.6,16.5,29.41,WNW,300,6.0,14.0,60,0.00,,,0.00,meteohub,2013-03-19 11:20:00,
2013-03-19 06:25:00,28.4,16.3,29.41,NW,320,3.0,13.0,60,0.00,,,0.00,meteohub,2013-03-19 11:25:00,
2013-03-19 06:30:00,28.4,16.3,29.41,NW,305,2.0,12.0,60,0.00,,,0.00,meteohub,2013-03-19 11:30:00,
2013-03-19 06:35:00,28.2,16.2,29.41,NNW,329,11.0,12.0,60,0.00,,,0.00,meteohub,2013-03-19 11:35:00,
2013-03-19 06:40:00,28.2,16.2,29.41,NW,326,4.0,12.0,60,0.00,,,0.00,meteohub,2013-03-19 11:40:00,
2013-03-19 06:45:00,28.2,15.8,29.42,WNW,301,7.0,12.0,59,0.00,,,0.00,meteohub,2013-03-19 11:45:00,
2013-03-19 06:50:00,28.0,15.6,29.42,West,276,4.0,12.0,59,0.00,,,0.00,meteohub,2013-03-19 11:50:00,
2013-03-19 06:55:00,28.0,14.7,29.42,WNW,297,6.0,13.0,57,0.00,,,0.00,meteohub,2013-03-19 11:55:00,
2013-03-19 07:00:00,28.0,14.4,29.42,NNW,344,6.0,16.0,56,0.00,,,0.00,meteohub,2013-03-19 12:00:00,
2013-03-19 07:05:00,28.0,14.4,29.42,NW,319,4.0,16.0,56,0.00,,,0.00,meteohub,2013-03-19 12:05:00,
2013-03-19 07:10:00,27.9,14.2,29.42,NW,321,5.0,16.0,56,0.00,,,0.00,meteohub,2013-03-19 12:10:00,
2013-03-19 07:15:00,27.9,14.5,29.42,NW,310,4.0,12.0,57,0.00,,,0.00,meteohub,2013-03-19 12:15:00,
2013-03-19 07:20:00,27.9,14.5,29.42,NW,311,10.0,12.0,57,0.00,,,0.00,meteohub,2013-03-19 12:20:00,
2013-03-19 07:26:00,27.7,14.4,29.43,NW,325,6.0,13.0,57,0.00,,,0.00,meteohub,2013-03-19 12:26:00,
2013-03-19 07:31:00,27.7,14.0,29.43,NW,323,3.0,15.0,56,0.00,,,0.00,meteohub,2013-03-19 12:31:00,
2013-03-19 07:36:00,27.7,14.0,29.43,NW,315,13.0,15.0,56,0.00,,,0.00,meteohub,2013-03-19 12:36:00,
2013-03-19 07:41:00,27.5,13.1,29.44,NNW,341,6.0,18.0,54,0.00,,,0.00,meteohub,2013-03-19 12:41:00,
2013-03-19 07:46:00,27.5,13.5,29.43,NW,321,3.0,18.0,55,0.00,,,0.00,meteohub,2013-03-19 12:46:00,
2013-03-19 07:51:00,27.7,13.6,29.44,NW,309,5.0,18.0,55,0.00,,,0.00,meteohub,2013-03-19 12:51:00,
2013-03-19 07:56:00,27.5,13.5,29.44,NNW,339,2.0,14.0,55,0.00,,,0.00,meteohub,2013-03-19 12:56:00,
2013-03-19 08:01:00,27.5,13.5,29.44,NW,316,9.0,13.0,55,0.00,,,0.00,meteohub,2013-03-19 13:01:00,
2013-03-19 08:06:00,27.5,13.5,29.45,NNW,329,6.0,18.0,55,0.00,,,0.00,meteohub,2013-03-19 13:06:00,
2013-03-19 08:12:00,27.7,13.3,29.45,NW,315,6.0,18.0,54,0.00,,,0.00,meteohub,2013-03-19 13:12:00,
2013-03-19 08:17:00,27.9,12.9,29.45,NW,316,4.0,18.0,53,0.00,,,0.00,meteohub,2013-03-19 13:17:00,
2013-03-19 08:22:00,27.9,12.9,29.45,WNW,283,11.0,13.0,53,0.00,,,0.00,meteohub,2013-03-19 13:22:00,
2013-03-19 08:27:00,27.9,12.6,29.45,NW,309,5.0,16.0,52,0.00,,,0.00,meteohub,2013-03-19 13:27:00,
2013-03-19 08:32:00,27.7,11.5,29.46,NW,311,7.0,16.0,50,0.00,,,0.00,meteohub,2013-03-19 13:32:00,
2013-03-19 08:37:00,27.9,11.7,29.46,NNW,332,2.0,21.0,50,0.00,,,0.00,meteohub,2013-03-19 13:37:00,
2013-03-19 08:42:00,27.9,11.7,29.46,NNW,328,12.0,21.0,50,0.00,,,0.00,meteohub,2013-03-19 13:42:00,
2013-03-19 08:48:00,28.0,11.8,29.46,NNW,331,12.0,17.0,50,0.00,,,0.00,meteohub,2013-03-19 13:48:00,
2013-03-19 08:53:00,28.0,11.8,29.47,NNW,333,6.0,17.0,50,0.00,,,0.00,meteohub,2013-03-19 13:53:00,
2013-03-19 08:58:00,28.2,12.0,29.47,North,355,4.0,18.0,50,0.00,,,0.00,meteohub,2013-03-19 13:58:00,
2013-03-19 09:03:00,28.8,12.4,29.47,NW,309,4.0,18.0,50,0.00,,,0.00,meteohub,2013-03-19 14:03:00,
2013-03-19 09:08:00,28.6,11.3,29.47,NW,322,13.0,16.0,48,0.00,,,0.00,meteohub,2013-03-19 14:08:00,
2013-03-19 09:13:00,28.6,11.3,29.47,WNW,302,3.0,17.0,48,0.00,,,0.00,meteohub,2013-03-19 14:13:00,
2013-03-19 09:18:00,28.8,12.0,29.48,WNW,297,4.0,17.0,49,0.00,,,0.00,meteohub,2013-03-19 14:18:00,
2013-03-19 09:23:00,29.3,12.6,29.48,NNW,339,4.0,15.0,49,0.00,,,0.00,meteohub,2013-03-19 14:23:00,
2013-03-19 09:28:00,29.7,11.8,29.49,WNW,289,12.0,15.0,47,0.00,,,0.00,meteohub,2013-03-19 14:28:00,
2013-03-19 09:33:00,29.8,11.7,29.49,West,281,12.0,15.0,46,0.00,,,0.00,meteohub,2013-03-19 14:33:00,
2013-03-19 09:38:00,29.8,10.6,29.49,NW,312,10.0,15.0,44,0.00,,,0.00,meteohub,2013-03-19 14:38:00,
2013-03-19 09:43:00,29.8,11.1,29.49,West,278,10.0,18.0,45,0.00,,,0.00,meteohub,2013-03-19 14:43:00,
2013-03-19 09:48:00,29.8,11.1,29.50,NNW,336,12.0,18.0,45,0.00,,,0.00,meteohub,2013-03-19 14:48:00,
2013-03-19 09:53:00,30.0,11.3,29.50,NW,313,8.0,18.0,45,0.00,,,0.00,meteohub,2013-03-19 14:53:00,
2013-03-19 09:58:00,30.4,13.1,29.50,NW,323,4.0,16.0,48,0.00,,,0.00,meteohub,2013-03-19 14:58:00,
2013-03-19 10:03:00,30.9,13.5,29.50,WNW,288,13.0,16.0,48,0.00,,,0.00,meteohub,2013-03-19 15:03:00,
2013-03-19 10:08:00,31.1,13.3,29.50,NW,321,11.0,15.0,47,0.00,,,0.00,meteohub,2013-03-19 15:08:00,
2013-03-19 10:13:00,31.1,12.2,29.50,NNW,338,4.0,15.0,45,0.00,,,0.00,meteohub,2013-03-19 15:13:00,
2013-03-19 10:18:00,31.6,12.7,29.51,WNW,284,11.0,15.0,45,0.00,,,0.00,meteohub,2013-03-19 15:18:00,
2013-03-19 10:23:00,31.5,10.9,29.51,North,0,6.0,16.0,42,0.00,,,0.00,meteohub,2013-03-19 15:23:00,
2013-03-19 10:28:00,31.6,11.7,29.51,NNW,332,4.0,16.0,43,0.00,,,0.00,meteohub,2013-03-19 15:28:00,
2013-03-19 10:33:00,31.8,11.3,29.51,NW,313,10.0,17.0,42,0.00,,,0.00,meteohub,2013-03-19 15:33:00,
2013-03-19 10:38:00,32.4,11.8,29.51,NW,310,7.0,17.0,42,0.00,,,0.00,meteohub,2013-03-19 15:38:00,
2013-03-19 10:43:00,32.5,12.6,29.51,NW,310,8.0,17.0,43,0.00,,,0.00,meteohub,2013-03-19 15:43:00,
2013-03-19 10:48:00,33.1,12.6,29.51,NW,309,4.0,16.0,42,0.00,,,0.00,meteohub,2013-03-19 15:48:00,
2013-03-19 10:53:00,33.4,12.2,29.51,North,350,9.0,13.0,41,0.00,,,0.00,meteohub,2013-03-19 15:53:00,
2013-03-19 10:58:00,33.6,12.9,29.52,North,350,2.0,13.0,42,0.00,,,0.00,meteohub,2013-03-19 15:58:00,
2013-03-19 11:03:00,34.0,13.8,29.51,NNW,329,1.0,13.0,43,0.00,,,0.00,meteohub,2013-03-19 16:03:00,
2013-03-19 11:09:00,34.3,14.2,29.52,West,278,4.0,13.0,43,0.00,,,0.00,meteohub,2013-03-19 16:09:00,
2013-03-19 11:14:00,34.3,14.2,29.52,NW,311,10.0,10.0,43,0.00,,,0.00,meteohub,2013-03-19 16:14:00,
2013-03-19 11:19:00,34.0,11.7,29.52,NW,323,11.0,17.0,39,0.00,,,0.00,meteohub,2013-03-19 16:19:00,
2013-03-19 11:24:00,34.0,11.7,29.52,North,0,6.0,17.0,39,0.00,,,0.00,meteohub,2013-03-19 16:24:00,
2013-03-19 11:29:00,34.5,13.3,29.52,WNW,294,0.0,17.0,41,0.00,,,0.00,meteohub,2013-03-19 16:29:00,
2013-03-19 11:34:00,35.2,12.7,29.52,WNW,290,8.0,17.0,39,0.00,,,0.00,meteohub,2013-03-19 16:34:00,
2013-03-19 11:39:00,35.1,12.0,29.52,North,0,4.0,13.0,38,0.00,,,0.00,meteohub,2013-03-19 16:39:00,
2013-03-19 11:44:00,35.2,12.2,29.53,NNE,14,4.0,14.0,38,0.00,,,0.00,meteohub,2013-03-19 16:44:00,
2013-03-19 11:49:00,35.6,11.8,29.53,North,11,5.0,18.0,37,0.00,,,0.00,meteohub,2013-03-19 16:49:00,
2013-03-19 11:54:00,35.8,12.0,29.52,NNW,334,7.0,18.0,37,0.00,,,0.00,meteohub,2013-03-19 16:54:00,
2013-03-19 11:59:00,36.0,11.7,29.52,NNW,348,6.0,18.0,36,0.00,,,0.00,meteohub,2013-03-19 16:59:00,
2013-03-19 12:04:00,36.3,11.8,29.52,NNW,343,10.0,16.0,36,0.00,,,0.00,meteohub,2013-03-19 17:04:00,
2013-03-19 12:09:00,36.7,11.7,29.52,North,349,6.0,16.0,35,0.00,,,0.00,meteohub,2013-03-19 17:09:00,
2013-03-19 12:14:00,37.0,13.1,29.52,West,271,10.0,14.0,37,0.00,,,0.00,meteohub,2013-03-19 17:14:00,
2013-03-19 12:19:00,37.2,13.3,29.52,NW,317,7.0,14.0,37,0.00,,,0.00,meteohub,2013-03-19 17:19:00,
2013-03-19 12:24:00,37.8,13.3,29.52,WNW,296,11.0,12.0,36,0.00,,,0.00,meteohub,2013-03-19 17:24:00,
2013-03-19 12:29:00,37.9,11.3,29.52,WNW,300,11.0,16.0,33,0.00,,,0.00,meteohub,2013-03-19 17:29:00,
2013-03-19 12:34:00,37.9,12.0,29.52,WNW,300,10.0,16.0,34,0.00,,,0.00,meteohub,2013-03-19 17:34:00,
2013-03-19 12:39:00,38.5,12.6,29.52,NW,308,3.0,14.0,34,0.00,,,0.00,meteohub,2013-03-19 17:39:00,
2013-03-19 12:44:00,38.8,12.2,29.52,North,10,5.0,14.0,33,0.00,,,0.00,meteohub,2013-03-19 17:44:00,
2013-03-19 12:49:00,38.7,12.7,29.52,WNW,302,3.0,12.0,34,0.00,,,0.00,meteohub,2013-03-19 17:49:00,
2013-03-19 12:54:00,38.8,13.5,29.52,NW,318,5.0,11.0,35,0.00,,,0.00,meteohub,2013-03-19 17:54:00,
2013-03-19 12:59:00,39.0,14.4,29.52,NNW,332,7.0,13.0,36,0.00,,,0.00,meteohub,2013-03-19 17:59:00,
2013-03-19 13:04:00,39.6,14.7,29.52,SW,217,4.0,13.0,36,0.00,,,0.00,meteohub,2013-03-19 18:04:00,
2013-03-19 13:09:00,39.9,16.3,29.52,WSW,246,6.0,13.0,38,0.00,,,0.00,meteohub,2013-03-19 18:09:00,
2013-03-19 13:14:00,39.9,15.8,29.52,NW,306,5.0,13.0,37,0.00,,,0.00,meteohub,2013-03-19 18:14:00,
2013-03-19 13:20:00,40.3,14.7,29.52,West,265,6.0,11.0,35,0.00,,,0.00,meteohub,2013-03-19 18:20:00,
2013-03-19 13:25:00,40.3,13.5,29.52,West,264,4.0,11.0,33,0.00,,,0.00,meteohub,2013-03-19 18:25:00,
2013-03-19 13:30:00,40.6,13.1,29.52,West,267,1.0,13.0,32,0.00,,,0.00,meteohub,2013-03-19 18:30:00,
2013-03-19 13:35:00,40.5,12.2,29.52,WNW,298,5.0,13.0,31,0.00,,,0.00,meteohub,2013-03-19 18:35:00,
2013-03-19 13:40:00,40.6,12.4,29.52,WNW,295,4.0,13.0,31,0.00,,,0.00,meteohub,2013-03-19 18:40:00,
2013-03-19 13:45:00,41.0,11.8,29.52,NW,315,2.0,13.0,30,0.00,,,0.00,meteohub,2013-03-19 18:45:00,
2013-03-19 13:50:00,41.7,12.6,29.52,West,268,1.0,15.0,30,0.00,,,0.00,meteohub,2013-03-19 18:50:00,
2013-03-19 13:55:00,42.1,12.0,29.52,North,355,5.0,15.0,29,0.00,,,0.00,meteohub,2013-03-19 18:55:00,
2013-03-19 14:00:00,42.1,13.6,29.51,West,269,5.0,13.0,31,0.00,,,0.00,meteohub,2013-03-19 19:00:00,
2013-03-19 14:05:00,42.1,14.4,29.51,NW,304,10.0,12.0,32,0.00,,,0.00,meteohub,2013-03-19 19:05:00,
2013-03-19 14:10:00,41.9,14.2,29.51,WNW,289,7.0,14.0,32,0.00,,,0.00,meteohub,2013-03-19 19:10:00,
2013-03-19 14:15:00,41.7,12.6,29.51,WSW,249,6.0,14.0,30,0.00,,,0.00,meteohub,2013-03-19 19:15:00,
2013-03-19 14:20:00,42.1,12.9,29.50,WNW,302,1.0,14.0,30,0.00,,,0.00,meteohub,2013-03-19 19:20:00,
2013-03-19 14:25:00,42.4,14.0,29.50,North,355,4.0,13.0,31,0.00,,,0.00,meteohub,2013-03-19 19:25:00,
2013-03-19 14:30:00,42.3,13.8,29.50,NNW,331,0.0,13.0,31,0.00,,,0.00,meteohub,2013-03-19 19:30:00,
2013-03-19 14:35:00,42.6,14.0,29.50,WNW,294,2.0,12.0,31,0.00,,,0.00,meteohub,2013-03-19 19:35:00,
2013-03-19 14:40:00,42.8,13.5,29.50,WSW,250,6.0,10.0,30,0.00,,,0.00,meteohub,2013-03-19 19:40:00,
2013-03-19 14:45:00,42.6,13.3,29.50,NW,308,3.0,16.0,30,0.00,,,0.00,meteohub,2013-03-19 19:45:00,
2013-03-19 14:50:00,42.6,13.3,29.50,North,349,1.0,16.0,30,0.00,,,0.00,meteohub,2013-03-19 19:50:00,
2013-03-19 14:55:00,42.8,13.5,29.50,North,349,3.0,16.0,30,0.00,,,0.00,meteohub,2013-03-19 19:55:00,
2013-03-19 15:00:00,42.6,14.0,29.51,North,5,6.0,12.0,31,0.00,,,0.00,meteohub,2013-03-19 20:00:00,
2013-03-19 15:05:00,42.6,13.3,29.51,NW,320,11.0,11.0,30,0.00,,,0.00,meteohub,2013-03-19 20:05:00,
2013-03-19 15:10:00,42.8,14.2,29.51,NW,316,3.0,11.0,31,0.00,,,0.00,meteohub,2013-03-19 20:10:00,
2013-03-19 15:15:00,43.0,13.6,29.51,West,281,5.0,12.0,30,0.00,,,0.00,meteohub,2013-03-19 20:15:00,
2013-03-19 15:20:00,43.3,13.3,29.51,NW,318,7.0,14.0,29,0.00,,,0.00,meteohub,2013-03-19 20:20:00,
2013-03-19 15:25:00,43.3,13.3,29.50,WNW,286,10.0,14.0,29,0.00,,,0.00,meteohub,2013-03-19 20:25:00,
2013-03-19 15:31:00,43.3,13.3,29.50,West,271,10.0,12.0,29,0.00,,,0.00,meteohub,2013-03-19 20:31:00,
2013-03-19 15:36:00,43.3,11.7,29.50,WNW,299,2.0,12.0,27,0.00,,,0.00,meteohub,2013-03-19 20:36:00,
2013-03-19 15:41:00,43.2,12.2,29.50,WNW,282,1.0,14.0,28,0.00,,,0.00,meteohub,2013-03-19 20:41:00,
2013-03-19 15:46:00,43.5,13.3,29.50,West,267,4.0,14.0,29,0.00,,,0.00,meteohub,2013-03-19 20:46:00,
2013-03-19 15:51:00,44.1,13.8,29.50,WSW,257,7.0,12.0,29,0.00,,,0.00,meteohub,2013-03-19 20:51:00,
2013-03-19 15:56:00,44.1,13.8,29.50,NNW,330,5.0,10.0,29,0.00,,,0.00,meteohub,2013-03-19 20:56:00,
2013-03-19 16:01:00,44.1,13.1,29.50,NW,318,10.0,12.0,28,0.00,,,0.00,meteohub,2013-03-19 21:01:00,
2013-03-19 16:06:00,44.2,14.0,29.50,WNW,295,1.0,12.0,29,0.00,,,0.00,meteohub,2013-03-19 21:06:00,
2013-03-19 16:11:00,44.4,13.3,29.50,WNW,299,3.0,12.0,28,0.00,,,0.00,meteohub,2013-03-19 21:11:00,
2013-03-19 16:16:00,44.1,14.5,29.50,WNW,301,2.0,11.0,30,0.00,,,0.00,meteohub,2013-03-19 21:16:00,
2013-03-19 16:21:00,44.1,16.2,29.50,West,265,1.0,11.0,32,0.00,,,0.00,meteohub,2013-03-19 21:21:00,
2013-03-19 16:27:00,44.1,16.7,29.50,WSW,248,10.0,11.0,33,0.00,,,0.00,meteohub,2013-03-19 21:27:00,
2013-03-19 16:32:00,43.9,17.2,29.50,WSW,253,6.0,11.0,34,0.00,,,0.00,meteohub,2013-03-19 21:32:00,
2013-03-19 16:37:00,43.9,16.0,29.49,WSW,254,0.0,11.0,32,0.00,,,0.00,meteohub,2013-03-19 21:37:00,
2013-03-19 16:42:00,43.7,15.8,29.49,WSW,254,6.0,11.0,32,0.00,,,0.00,meteohub,2013-03-19 21:42:00,
2013-03-19 16:47:00,43.3,14.7,29.49,West,277,3.0,14.0,31,0.00,,,0.00,meteohub,2013-03-19 21:47:00,
2013-03-19 16:52:00,43.3,15.4,29.50,WSW,247,5.0,14.0,32,0.00,,,0.00,meteohub,2013-03-19 21:52:00,
2013-03-19 16:57:00,43.3,15.4,29.50,WNW,286,3.0,14.0,32,0.00,,,0.00,meteohub,2013-03-19 21:57:00,
2013-03-19 17:02:00,43.7,15.1,29.50,WSW,238,5.0,11.0,31,0.00,,,0.00,meteohub,2013-03-19 22:02:00,
2013-03-19 17:07:00,43.5,14.9,29.50,SW,229,6.0,13.0,31,0.00,,,0.00,meteohub,2013-03-19 22:07:00,
2013-03-19 17:12:00,43.7,14.4,29.50,WSW,243,3.0,13.0,30,0.00,,,0.00,meteohub,2013-03-19 22:12:00,
2013-03-19 17:18:00,43.7,14.4,29.50,SW,227,4.0,14.0,30,0.00,,,0.00,meteohub,2013-03-19 22:18:00,
2013-03-19 17:23:00,43.9,14.4,29.50,West,260,6.0,14.0,30,0.00,,,0.00,meteohub,2013-03-19 22:23:00,
2013-03-19 17:28:00,44.1,13.8,29.50,SW,229,6.0,13.0,29,0.00,,,0.00,meteohub,2013-03-19 22:28:00,
2013-03-19 17:33:00,44.1,16.2,29.49,West,280,10.0,13.0,32,0.00,,,0.00,meteohub,2013-03-19 22:33:00,
2013-03-19 17:38:00,44.1,17.4,29.49,SSW,212,5.0,13.0,34,0.00,,,0.00,meteohub,2013-03-19 22:38:00,
2013-03-19 17:43:00,43.9,16.7,29.50,West,276,4.0,13.0,33,0.00,,,0.00,meteohub,2013-03-19 22:43:00,
2013-03-19 17:48:00,43.7,16.5,29.50,West,271,5.0,15.0,33,0.00,,,0.00,meteohub,2013-03-19 22:48:00,
2013-03-19 17:53:00,43.7,17.2,29.50,WSW,254,5.0,15.0,34,0.00,,,0.00,meteohub,2013-03-19 22:53:00,
2013-03-19 17:58:00,43.5,17.1,29.50,West,275,4.0,15.0,34,0.00,,,0.00,meteohub,2013-03-19 22:58:00,
2013-03-19 18:03:00,43.3,16.9,29.50,WSW,252,11.0,13.0,34,0.00,,,0.00,meteohub,2013-03-19 23:03:00,
2013-03-19 18:08:00,43.2,16.7,29.50,West,267,4.0,14.0,34,0.00,,,0.00,meteohub,2013-03-19 23:08:00,
2013-03-19 18:13:00,43.2,17.4,29.50,WNW,296,4.0,14.0,35,0.00,,,0.00,meteohub,2013-03-19 23:13:00,
2013-03-19 18:18:00,43.2,16.7,29.50,West,273,7.0,14.0,34,0.00,,,0.00,meteohub,2013-03-19 23:18:00,
2013-03-19 18:23:00,43.2,16.7,29.50,WNW,286,3.0,14.0,34,0.00,,,0.00,meteohub,2013-03-19 23:23:00,
2013-03-19 18:29:00,43.2,16.7,29.50,West,261,3.0,14.0,34,0.00,,,0.00,meteohub,2013-03-19 23:29:00,
2013-03-19 18:34:00,43.2,17.4,29.50,WSW,252,6.0,11.0,35,0.00,,,0.00,meteohub,2013-03-19 23:34:00,
2013-03-19 18:39:00,43.2,17.4,29.50,WNW,285,5.0,11.0,35,0.00,,,0.00,meteohub,2013-03-19 23:39:00,
2013-03-19 18:44:00,43.0,17.8,29.50,WSW,242,1.0,12.0,36,0.00,,,0.00,meteohub,2013-03-19 23:44:00,
2013-03-19 18:49:00,43.0,19.0,29.50,SW,227,9.0,12.0,38,0.00,,,0.00,meteohub,2013-03-19 23:49:00,
2013-03-19 18:54:00,42.6,18.9,29.50,WSW,238,4.0,12.0,38,0.00,,,0.00,meteohub,2013-03-19 23:54:00,
2013-03-19 18:59:00,42.4,18.7,29.50,WSW,244,4.0,10.0,38,0.00,,,0.00,meteohub,2013-03-19 23:59:00,
2013-03-19 19:04:00,42.1,18.9,29.50,WSW,250,3.0,10.0,39,0.00,,,0.00,meteohub,2013-03-20 00:04:00,
2013-03-19 19:09:00,41.7,18.5,29.50,West,267,11.0,11.0,39,0.00,,,0.00,meteohub,2013-03-20 00:09:00,
2013-03-19 19:14:00,41.4,18.9,29.50,WSW,245,2.0,11.0,40,0.00,,,0.00,meteohub,2013-03-20 00:14:00,
2013-03-19 19:19:00,41.2,18.7,29.50,WSW,238,5.0,11.0,40,0.00,,,0.00,meteohub,2013-03-20 00:19:00,
2013-03-19 19:24:00,40.6,18.1,29.50,WSW,254,4.0,11.0,40,0.00,,,0.00,meteohub,2013-03-20 00:24:00,
2013-03-19 19:29:00,40.5,18.7,29.50,WSW,249,0.0,10.0,41,0.00,,,0.00,meteohub,2013-03-20 00:29:00,
2013-03-19 19:34:00,40.1,19.4,29.50,WSW,251,3.0,10.0,43,0.00,,,0.00,meteohub,2013-03-20 00:34:00,
2013-03-19 19:39:00,39.7,19.0,29.50,WSW,250,3.0,10.0,43,0.00,,,0.00,meteohub,2013-03-20 00:39:00,
2013-03-19 19:44:00,39.6,19.4,29.50,WSW,243,0.0,4.0,44,0.00,,,0.00,meteohub,2013-03-20 00:44:00,
2013-03-19 19:49:00,39.4,19.2,29.50,WSW,238,1.0,3.0,44,0.00,,,0.00,meteohub,2013-03-20 00:49:00,
2013-03-19 19:54:00,38.8,19.4,29.50,SW,231,0.0,4.0,45,0.00,,,0.00,meteohub,2013-03-20 00:54:00,
2013-03-19 19:59:00,38.7,19.6,29.50,SW,227,1.0,5.0,46,0.00,,,0.00,meteohub,2013-03-20 00:59:00,
2013-03-19 20:04:00,38.5,19.9,29.50,WSW,254,4.0,5.0,47,0.00,,,0.00,meteohub,2013-03-20 01:04:00,
2013-03-19 20:10:00,38.1,19.6,29.50,WSW,251,2.0,5.0,47,0.00,,,0.00,meteohub,2013-03-20 01:10:00,
2013-03-19 20:15:00,37.9,20.5,29.50,West,262,2.0,5.0,49,0.00,,,0.00,meteohub,2013-03-20 01:15:00,
2013-03-19 20:20:00,37.6,20.7,29.50,SW,234,0.0,7.0,50,0.00,,,0.00,meteohub,2013-03-20 01:20:00,
2013-03-19 20:25:00,37.4,20.5,29.50,SW,233,2.0,7.0,50,0.00,,,0.00,meteohub,2013-03-20 01:25:00,
2013-03-19 20:30:00,37.2,20.8,29.50,SW,234,2.0,7.0,51,0.00,,,0.00,meteohub,2013-03-20 01:30:00,
2013-03-19 20:35:00,36.9,20.8,29.50,WSW,237,0.0,4.0,52,0.00,,,0.00,meteohub,2013-03-20 01:35:00,
2013-03-19 20:40:00,36.9,21.4,29.50,WSW,238,0.0,4.0,53,0.00,,,0.00,meteohub,2013-03-20 01:40:00,
2013-03-19 20:45:00,36.7,21.2,29.50,WSW,237,1.0,4.0,53,0.00,,,0.00,meteohub,2013-03-20 01:45:00,
2013-03-19 20:50:00,36.3,21.2,29.50,WSW,254,3.0,5.0,54,0.00,,,0.00,meteohub,2013-03-20 01:50:00,
2013-03-19 20:55:00,36.1,21.6,29.51,WSW,254,1.0,5.0,55,0.00,,,0.00,meteohub,2013-03-20 01:55:00,
2013-03-19 21:00:00,36.0,21.4,29.50,WSW,256,1.0,5.0,55,0.00,,,0.00,meteohub,2013-03-20 02:00:00,
2013-03-19 21:05:00,35.8,21.2,29.50,West,259,1.0,5.0,55,0.00,,,0.00,meteohub,2013-03-20 02:05:00,
2013-03-19 21:10:00,35.6,21.4,29.50,West,260,3.0,5.0,56,0.00,,,0.00,meteohub,2013-03-20 02:10:00,
2013-03-19 21:15:00,35.4,21.2,29.50,WSW,257,1.0,4.0,56,0.00,,,0.00,meteohub,2013-03-20 02:15:00,
2013-03-19 21:20:00,35.4,21.2,29.50,WSW,256,0.0,3.0,56,0.00,,,0.00,meteohub,2013-03-20 02:20:00,
2013-03-19 21:25:00,35.2,21.2,29.50,WSW,258,1.0,4.0,56,0.00,,,0.00,meteohub,2013-03-20 02:25:00,
2013-03-19 21:30:00,35.2,21.6,29.50,West,261,2.0,4.0,57,0.00,,,0.00,meteohub,2013-03-20 02:30:00,
2013-03-19 21:35:00,35.2,21.2,29.50,WSW,249,1.0,5.0,56,0.00,,,0.00,meteohub,2013-03-20 02:35:00,
2013-03-19 21:40:00,35.1,21.0,29.50,WSW,249,0.0,5.0,56,0.00,,,0.00,meteohub,2013-03-20 02:40:00,
2013-03-19 21:46:00,35.1,21.4,29.50,WSW,254,2.0,5.0,57,0.00,,,0.00,meteohub,2013-03-20 02:46:00,
2013-03-19 21:51:00,35.1,21.4,29.50,WSW,254,2.0,5.0,57,0.00,,,0.00,meteohub,2013-03-20 02:51:00,
2013-03-19 21:56:00,34.9,21.6,29.50,West,265,0.0,6.0,58,0.00,,,0.00,meteohub,2013-03-20 02:56:00,
2013-03-19 22:01:00,34.9,21.6,29.50,WSW,238,3.0,6.0,58,0.00,,,0.00,meteohub,2013-03-20 03:01:00,
2013-03-19 22:06:00,34.7,21.4,29.50,WSW,249,3.0,6.0,58,0.00,,,0.00,meteohub,2013-03-20 03:06:00,
2013-03-19 22:11:00,34.7,21.4,29.50,West,260,2.0,6.0,58,0.00,,,0.00,meteohub,2013-03-20 03:11:00,
2013-03-19 22:16:00,34.5,21.2,29.50,WSW,242,0.0,6.0,58,0.00,,,0.00,meteohub,2013-03-20 03:16:00,
2013-03-19 22:22:00,34.5,21.2,29.49,SW,234,1.0,5.0,58,0.00,,,0.00,meteohub,2013-03-20 03:22:00,
2013-03-19 22:27:00,34.3,21.0,29.49,WSW,248,2.0,5.0,58,0.00,,,0.00,meteohub,2013-03-20 03:27:00,
2013-03-19 22:32:00,34.3,21.6,29.49,WSW,239,2.0,5.0,59,0.00,,,0.00,meteohub,2013-03-20 03:32:00,
2013-03-19 22:37:00,34.3,21.6,29.49,SW,230,1.0,5.0,59,0.00,,,0.00,meteohub,2013-03-20 03:37:00,
2013-03-19 22:42:00,34.3,21.9,29.49,SW,230,0.0,5.0,60,0.00,,,0.00,meteohub,2013-03-20 03:42:00,
2013-03-19 22:48:00,34.2,22.1,29.49,SW,227,0.0,5.0,61,0.00,,,0.00,meteohub,2013-03-20 03:48:00,
2013-03-19 22:53:00,34.0,21.9,29.49,SW,226,2.0,4.0,61,0.00,,,0.00,meteohub,2013-03-20 03:53:00,
2013-03-19 22:58:00,34.0,21.9,29.49,SW,231,2.0,5.0,61,0.00,,,0.00,meteohub,2013-03-20 03:58:00,
2013-03-19 23:00:00,34.0,21.9,29.49,SW,234,2.0,5.0,61,0.00,,,0.00,meteohub,2013-03-20 04:00:00,
2013-03-19 23:01:00,34.0,21.9,29.49,SW,223,2.0,5.0,61,0.00,,,0.00,meteohub,2013-03-20 04:01:00,
2013-03-19 23:02:00,34.0,21.9,29.49,SW,221,6.0,6.0,61,0.00,,,0.00,meteohub,2013-03-20 04:02:00,
2013-03-19 23:07:00,34.0,21.9,29.49,SW,222,3.0,6.0,61,0.00,,,0.00,meteohub,2013-03-20 04:07:00,
2013-03-19 23:12:00,34.0,22.3,29.49,SW,224,3.0,6.0,62,0.00,,,0.00,meteohub,2013-03-20 04:12:00,
2013-03-19 23:17:00,33.8,21.7,29.49,WSW,240,3.0,6.0,61,0.00,,,0.00,meteohub,2013-03-20 04:17:00,
2013-03-19 23:22:00,33.8,22.1,29.49,SW,236,3.0,6.0,62,0.00,,,0.00,meteohub,2013-03-20 04:22:00,
2013-03-19 23:27:00,33.8,22.1,29.49,WSW,254,0.0,6.0,62,0.00,,,0.00,meteohub,2013-03-20 04:27:00,
2013-03-19 23:32:00,33.8,22.1,29.49,SW,234,2.0,6.0,62,0.00,,,0.00,meteohub,2013-03-20 04:32:00,
2013-03-19 23:37:00,33.8,22.1,29.49,West,273,7.0,8.0,62,0.00,,,0.00,meteohub,2013-03-20 04:37:00,
2013-03-19 23:42:00,34.2,22.8,29.49,West,265,10.0,10.0,63,0.00,,,0.00,meteohub,2013-03-20 04:42:00,
2013-03-19 23:47:00,34.3,23.0,29.49,West,267,4.0,13.0,63,0.00,,,0.00,meteohub,2013-03-20 04:47:00,
2013-03-19 23:52:00,34.7,23.4,29.49,West,260,4.0,13.0,63,0.00,,,0.00,meteohub,2013-03-20 04:52:00,
2013-03-19 23:57:00,34.9,23.5,29.49,WNW,300,13.0,14.0,63,0.00,,,0.00,meteohub,2013-03-20 04:57:00,